Time,TemperatureF,DewpointF,PressureIn,WindDirection,WindDirectionDegrees,WindSpeedMPH,WindSpeedGustMPH,Humidity,HourlyPrecipIn,Conditions,Clouds,dailyrainin,SoftwareType,DateUTC
2013-02-27 00:01:00,39.6,38.0,29.58,NW,313,0.0,2.0,94,0.00,,,0.80,VWS V14.00,2013-02-27 05:01:00,
2013-02-27 00:16:00,39.3,37.7,29.58,West,264,3.0,6.0,94,0.00,,,0.00,VWS V14.00,2013-02-27 05:16:00,
2013-02-27 00:31:00,39.2,37.6,29.58,West,264,1.0,5.0,94,0.00,,,0.00,VWS V14.00,2013-02-27 05:31:00,
2013-02-27 00:46:00,39.1,37.5,29.58,West,277,1.0,6.0,94,0.00,,,0.00,VWS V14.00,2013-02-27 05:46:00,
2013-02-27 01:01:00,38.9,37.3,29.58,West,275,1.0,5.0,94,0.00,,,0.00,VWS V14.00,2013-02-27 06:01:00,
2013-02-27 01:16:00,38.9,37.3,29.59,West,268,0.0,10.0,94,0.00,,,0.00,VWS V14.00,2013-02-27 06:16:00,
2013-02-27 01:31:00,39.1,37.8,29.59,WSW,240,0.0,7.0,95,0.00,,,0.00,VWS V14.00,2013-02-27 06:31:00,
2013-02-27 01:46:00,39.1,37.8,29.58,SW,236,0.0,5.0,95,0.00,,,0.00,VWS V14.00,2013-02-27 06:46:00,
2013-02-27 02:01:00,39.2,37.9,29.58,SW,227,3.0,7.0,95,0.00,,,0.00,VWS V14.00,2013-02-27 07:01:00,
2013-02-27 02:31:00,39.3,38.0,29.59,WSW,258,2.0,8.0,95,0.00,,,0.00,VWS V14.00,2013-02-27 07:31:00,
2013-02-27 02:46:00,39.2,37.9,29.59,West,271,5.0,7.0,95,0.00,,,0.00,VWS V14.00,2013-02-27 07:46:00,
2013-02-27 03:01:00,39.2,37.9,29.59,WSW,254,1.0,11.0,95,0.00,,,0.00,VWS V14.00,2013-02-27 08:01:00,
2013-02-27 03:16:00,39.3,38.0,29.58,WSW,244,0.0,6.0,95,0.00,,,0.00,VWS V14.00,2013-02-27 08:16:00,
2013-02-27 03:31:00,39.3,38.0,29.58,SW,233,2.0,8.0,95,0.00,,,0.00,VWS V14.00,2013-02-27 08:31:00,
2013-02-27 03:46:00,39.5,38.2,29.58,WSW,248,2.0,8.0,95,0.00,,,0.00,VWS V14.00,2013-02-27 08:46:00,
2013-02-27 04:01:00,39.5,38.2,29.59,WSW,244,0.0,7.0,95,0.00,,,0.00,VWS V14.00,2013-02-27 09:01:00,
2013-02-27 04:16:00,39.6,38.3,29.59,West,265,2.0,7.0,95,0.00,,,0.00,VWS V14.00,2013-02-27 09:16:00,
2013-02-27 04:31:00,39.6,38.3,29.59,West,272,4.0,7.0,95,0.00,,,0.00,VWS V14.00,2013-02-27 09:31:00,
2013-02-27 04:46:00,39.8,38.5,29.60,SW,222,2.0,5.0,95,0.00,,,0.00,VWS V14.00,2013-02-27 09:46:00,
2013-02-27 05:01:00,39.8,38.5,29.60,WSW,247,2.0,5.0,95,0.00,,OVC004,0.00,VWS V14.00,2013-02-27 10:01:00,
2013-02-27 05:17:00,39.9,38.6,29.61,WSW,250,3.0,10.0,95,0.00,,OVC004,0.00,VWS V14.00,2013-02-27 10:17:00,
2013-02-27 05:31:00,39.8,38.5,29.62,West,264,1.0,10.0,95,0.00,,OVC004,0.00,VWS V14.00,2013-02-27 10:31:00,
2013-02-27 05:46:00,39.8,38.5,29.62,West,261,1.0,6.0,95,0.00,,OVC004,0.00,VWS V14.00,2013-02-27 10:46:00,
2013-02-27 06:01:00,39.8,38.5,29.63,WSW,258,3.0,6.0,95,0.00,,OVC004,0.00,VWS V14.00,2013-02-27 11:01:00,
2013-02-27 06:16:00,39.6,38.3,29.63,West,260,0.0,7.0,95,0.00,,OVC004,0.00,VWS V14.00,2013-02-27 11:16:00,
2013-02-27 06:31:00,39.6,38.3,29.64,West,260,2.0,6.0,95,0.00,,OVC004,0.00,VWS V14.00,2013-02-27 11:31:00,
2013-02-27 06:46:00,39.6,38.0,29.65,SSW,199,6.0,8.0,94,0.00,,OVC004,0.00,VWS V14.00,2013-02-27 11:46:00,
2013-02-27 07:01:00,39.5,37.9,29.65,SW,234,0.0,7.0,94,0.00,,OVC004,0.00,VWS V14.00,2013-02-27 12:01:00,
2013-02-27 07:16:00,39.3,37.7,29.67,WSW,256,2.0,7.0,94,0.00,,OVC004,0.00,VWS V14.00,2013-02-27 12:16:00,
2013-02-27 07:31:00,39.1,37.5,29.68,WSW,257,1.0,7.0,94,0.00,,OVC004,0.00,VWS V14.00,2013-02-27 12:31:00,
2013-02-27 07:46:00,39.1,37.5,29.68,WSW,241,1.0,6.0,94,0.00,,OVC004,0.00,VWS V14.00,2013-02-27 12:46:00,
2013-02-27 08:02:00,39.1,37.5,29.69,WSW,244,0.0,5.0,94,0.00,,OVC004,0.00,VWS V14.00,2013-02-27 13:02:00,
2013-02-27 08:16:00,39.3,37.7,29.70,WSW,256,3.0,6.0,94,0.00,,OVC004,0.00,VWS V14.00,2013-02-27 13:16:00,
2013-02-27 08:31:00,39.9,38.3,29.71,WSW,251,3.0,8.0,94,0.00,,,0.00,VWS V14.00,2013-02-27 13:31:00,
2013-02-27 08:46:00,41.1,39.0,29.71,WSW,237,0.0,8.0,92,0.00,,,0.00,VWS V14.00,2013-02-27 13:46:00,
2013-02-27 09:01:00,42.6,39.3,29.71,WSW,254,1.0,8.0,88,0.00,,SCT006,0.00,VWS V14.00,2013-02-27 14:01:00,
2013-02-27 09:16:00,44.8,38.4,29.71,West,275,1.0,11.0,78,0.00,,SCT006,0.00,VWS V14.00,2013-02-27 14:16:00,
2013-02-27 09:31:00,46.7,37.8,29.71,WSW,253,2.0,8.0,71,0.00,,SCT006,0.00,VWS V14.00,2013-02-27 14:31:00,
2013-02-27 09:46:00,48.2,37.4,29.71,WNW,287,10.0,10.0,66,0.00,,SCT006,0.00,VWS V14.00,2013-02-27 14:46:00,
2013-02-27 10:01:00,49.2,36.8,29.72,WNW,282,6.0,11.0,62,0.00,,CLR,0.00,VWS V14.00,2013-02-27 15:01:00,
2013-02-27 10:16:00,49.8,35.6,29.71,SW,227,6.0,11.0,58,0.00,,CLR,0.00,VWS V14.00,2013-02-27 15:16:00,
2013-02-27 10:31:00,50.5,35.0,29.71,WNW,292,1.0,12.0,55,0.00,,CLR,0.00,VWS V14.00,2013-02-27 15:31:00,
2013-02-27 10:46:00,51.7,34.7,29.72,NW,322,3.0,14.0,52,0.00,,CLR,0.00,VWS V14.00,2013-02-27 15:46:00,
2013-02-27 11:01:00,52.0,35.4,29.72,SSW,210,6.0,10.0,53,0.00,,CLR,0.00,VWS V14.00,2013-02-27 16:01:00,
2013-02-27 11:16:00,52.2,34.6,29.72,West,278,3.0,9.0,51,0.00,,CLR,0.00,VWS V14.00,2013-02-27 16:16:00,
2013-02-27 11:31:00,52.6,34.5,29.71,SSW,195,1.0,7.0,50,0.00,,CLR,0.00,VWS V14.00,2013-02-27 16:31:00,
2013-02-27 11:46:00,52.8,33.7,29.71,WNW,295,2.0,11.0,48,0.00,,CLR,0.00,VWS V14.00,2013-02-27 16:46:00,
2013-02-27 12:01:00,53.2,33.0,29.71,SSW,199,3.0,14.0,46,0.00,,CLR,0.00,VWS V14.00,2013-02-27 17:01:00,
2013-02-27 12:16:00,53.2,34.5,29.70,NW,320,2.0,10.0,49,0.00,,SCT035,0.00,VWS V14.00,2013-02-27 17:16:00,
2013-02-27 12:31:00,53.3,34.1,29.70,WSW,253,1.0,13.0,48,0.00,,SCT035,0.00,VWS V14.00,2013-02-27 17:31:00,
2013-02-27 12:46:00,53.2,33.5,29.70,WSW,247,0.0,14.0,47,0.00,,SCT035,0.00,VWS V14.00,2013-02-27 17:46:00,
2013-02-27 13:01:00,53.9,33.1,29.69,WNW,289,2.0,13.0,45,0.00,,SCT042,0.00,VWS V14.00,2013-02-27 18:01:00,
2013-02-27 13:16:00,54.7,33.8,29.68,SW,217,0.0,8.0,45,0.00,,SCT042,0.00,VWS V14.00,2013-02-27 18:16:00,
2013-02-27 13:31:00,55.4,34.4,29.68,SW,233,1.0,10.0,45,0.00,,SCT042,0.00,VWS V14.00,2013-02-27 18:31:00,
2013-02-27 13:46:00,55.7,34.7,29.67,West,261,6.0,16.0,45,0.00,,SCT042,0.00,VWS V14.00,2013-02-27 18:46:00,
2013-02-27 14:01:00,55.4,34.4,29.67,SW,220,2.0,14.0,45,0.00,,SCT042,0.00,VWS V14.00,2013-02-27 19:01:00,
2013-02-27 14:16:00,55.3,33.8,29.67,SW,217,0.0,10.0,44,0.00,,SCT045,0.00,VWS V14.00,2013-02-27 19:16:00,
2013-02-27 14:31:00,56.0,35.0,29.66,SW,223,6.0,10.0,45,0.00,,SCT045,0.00,VWS V14.00,2013-02-27 19:31:00,
2013-02-27 14:46:00,55.7,35.8,29.66,SW,227,3.0,11.0,47,0.00,,SCT045,0.00,VWS V14.00,2013-02-27 19:46:00,
2013-02-27 15:01:00,55.7,35.8,29.66,SW,230,0.0,10.0,47,0.00,,SCT050,0.00,VWS V14.00,2013-02-27 20:01:00,
2013-02-27 15:16:00,55.7,35.8,29.66,SSW,202,3.0,11.0,47,0.00,,SCT050,0.00,VWS V14.00,2013-02-27 20:16:00,
2013-02-27 15:31:00,55.6,37.3,29.66,SW,216,0.0,8.0,50,0.00,,SCT050,0.00,VWS V14.00,2013-02-27 20:31:00,
2013-02-27 15:46:00,56.6,35.5,29.65,SW,224,2.0,8.0,45,0.00,,SCT050,0.00,VWS V14.00,2013-02-27 20:46:00,
2013-02-27 16:01:00,56.3,35.8,29.65,WSW,257,3.0,11.0,46,0.00,,SCT048,0.00,VWS V14.00,2013-02-27 21:01:00,
2013-02-27 16:16:00,55.6,35.2,29.65,South,188,1.0,8.0,46,0.00,,SCT048,0.00,VWS V14.00,2013-02-27 21:16:00,
2013-02-27 16:31:00,55.4,35.5,29.65,West,260,0.0,8.0,47,0.00,,SCT048,0.00,VWS V14.00,2013-02-27 21:31:00,
2013-02-27 16:46:00,55.6,35.7,29.65,SW,223,3.0,8.0,47,0.00,,SCT048,0.00,VWS V14.00,2013-02-27 21:46:00,
2013-02-27 17:01:00,54.4,35.7,29.64,WSW,253,8.0,10.0,49,0.00,,SCT050,0.00,VWS V14.00,2013-02-27 22:01:00,
2013-02-27 17:16:00,54.5,35.8,29.65,SW,215,2.0,10.0,49,0.00,,SCT050,0.00,VWS V14.00,2013-02-27 22:16:00,
2013-02-27 17:31:00,54.4,35.7,29.65,WSW,239,3.0,6.0,49,0.00,,SCT050,0.00,VWS V14.00,2013-02-27 22:31:00,
2013-02-27 17:46:00,54.1,35.9,29.65,SW,230,3.0,7.0,50,0.00,,SCT050,0.00,VWS V14.00,2013-02-27 22:46:00,
2013-02-27 18:01:00,53.2,36.5,29.65,SW,230,1.0,6.0,53,0.00,,SCT050,0.00,VWS V14.00,2013-02-27 23:01:00,
2013-02-27 18:16:00,52.2,36.5,29.65,SW,230,0.0,3.0,55,0.00,,SCT045,0.00,VWS V14.00,2013-02-27 23:16:00,
2013-02-27 18:31:00,50.4,36.2,29.66,SW,232,0.0,3.0,58,0.00,,SCT045,0.00,VWS V14.00,2013-02-27 23:31:00,
2013-02-27 18:46:00,48.8,36.4,29.66,SW,232,0.0,1.0,62,0.00,,SCT045,0.00,VWS V14.00,2013-02-27 23:46:00,
2013-02-27 19:01:00,47.6,35.6,29.67,SW,232,0.0,0.0,63,0.00,,SCT047,0.00,VWS V14.00,2013-02-28 00:01:00,
2013-02-27 19:16:00,46.4,35.7,29.67,SW,232,0.0,0.0,66,0.00,,SCT047,0.00,VWS V14.00,2013-02-28 00:16:00,
2013-02-27 19:31:00,45.7,35.8,29.67,SW,232,0.0,2.0,68,0.00,,FEW045,0.00,VWS V14.00,2013-02-28 00:31:00,
2013-02-27 19:46:00,44.9,35.4,29.66,SW,232,0.0,1.0,69,0.00,,FEW045,0.00,VWS V14.00,2013-02-28 00:46:00,
2013-02-27 20:01:00,44.9,35.4,29.67,SW,232,0.0,0.0,69,0.00,,FEW045,0.00,VWS V14.00,2013-02-28 01:01:00,
2013-02-27 20:16:00,44.9,35.4,29.65,SW,232,0.0,0.0,69,0.00,,FEW045,0.00,VWS V14.00,2013-02-28 01:16:00,
2013-02-27 20:31:00,44.9,35.4,29.66,SW,232,0.0,0.0,69,0.00,,FEW045,0.00,VWS V14.00,2013-02-28 01:31:00,
2013-02-27 20:46:00,42.3,35.0,29.66,WSW,246,0.0,0.0,75,0.00,,FEW045,0.00,VWS V14.00,2013-02-28 01:46:00,
2013-02-27 21:01:00,42.2,35.2,29.67,SW,229,0.0,3.0,76,0.00,,FEW045,0.00,VWS V14.00,2013-02-28 02:01:00,
2013-02-27 21:16:00,42.8,35.8,29.66,SW,236,0.0,3.0,76,0.00,,FEW045,0.00,VWS V14.00,2013-02-28 02:16:00,
2013-02-27 21:31:00,42.9,35.5,29.66,SW,230,0.0,3.0,75,0.00,,FEW045,0.00,VWS V14.00,2013-02-28 02:31:00,
2013-02-27 21:46:00,42.5,35.5,29.66,SW,229,0.0,2.0,76,0.00,,FEW045,0.00,VWS V14.00,2013-02-28 02:46:00,
2013-02-27 22:01:00,41.9,35.2,29.65,SW,230,0.0,2.0,77,0.00,,FEW060,0.00,VWS V14.00,2013-02-28 03:01:00,
2013-02-27 22:16:00,41.2,34.9,29.65,SW,229,0.0,1.0,78,0.00,,FEW060,0.00,VWS V14.00,2013-02-28 03:16:00,
2013-02-27 22:31:00,41.5,35.5,29.64,SW,230,0.0,1.0,79,0.00,,FEW060,0.00,VWS V14.00,2013-02-28 03:31:00,
2013-02-27 22:46:00,43.3,36.3,29.65,SW,230,2.0,5.0,76,0.00,,FEW060,0.00,VWS V14.00,2013-02-28 03:46:00,
2013-02-27 23:01:00,45.2,36.4,29.65,West,260,0.0,5.0,71,0.00,,SCT065,0.00,VWS V14.00,2013-02-28 04:01:00,
2013-02-27 23:16:00,44.6,36.2,29.64,West,265,0.0,0.0,72,0.00,,SCT065,0.00,VWS V14.00,2013-02-28 04:16:00,
2013-02-27 23:31:00,43.9,36.5,29.64,West,260,0.0,2.0,75,0.00,,SCT065,0.00,VWS V14.00,2013-02-28 04:31:00,
2013-02-27 23:46:00,43.8,37.4,29.65,WSW,247,1.0,3.0,78,0.00,,SCT065,0.00,VWS V14.00,2013-02-28 04:46:00,